,,Stat5,,Stat1,,Stat2,,Stat3,,Stat4,,Wind1,,Wind1,
time,status,PA1M_AVG,status,PR1M_SUM,status,RH1M_AVG,status,SR1M_AVG,status,TA1M_AVG,status,W1dAve1m,status,W1sAve1m,
2000-04-24, 00:00:01,VALID,917.723,VALID,0,VALID,99.292,VALID,0.0679233,VALID,19.2311,VALID,184,VALID,0,
2000-04-24, 00:01:00,VALID,917.737,VALID,0,VALID,99.3123,VALID,0.0679233,VALID,19.2209,VALID,183,VALID,0,
2000-04-24, 00:02:00,VALID,917.729,VALID,0,VALID,99.3225,VALID,0.0339617,VALID,19.2314,VALID,178,VALID,0,
2000-04-24, 00:03:00,VALID,917.719,VALID,0,VALID,99.3123,VALID,0.0849042,VALID,19.2376,VALID,178,VALID,0,
2000-04-24, 00:04:00,VALID,917.713,VALID,0,VALID,99.3136,VALID,0.0679233,VALID,19.254,VALID,185,VALID,0,
2000-04-24, 00:05:00,VALID,917.71,VALID,0,VALID,99.2767,VALID,0.0849042,VALID,19.2468,VALID,185,VALID,0,
2000-04-24, 00:06:00,VALID,917.708,VALID,0,VALID,99.2665,VALID,0.0849042,VALID,19.244,VALID,183,VALID,0.552734,
2000-04-24, 00:07:00,VALID,917.695,VALID,0,VALID,99.2602,VALID,-0.0169808,VALID,19.2517,VALID,188,VALID,1.01663,
2000-04-24, 00:08:00,VALID,917.678,VALID,0,VALID,99.2347,VALID,-0.0169808,VALID,19.2482,VALID,183,VALID,0.916941,
2000-04-24, 00:09:00,VALID,917.68,VALID,0,VALID,99.222,VALID,0,VALID,19.2577,VALID,182,VALID,0.828506,
2000-04-24, 00:10:00,VALID,917.665,VALID,0,VALID,99.1877,VALID,-0.0509425,VALID,19.2649,VALID,187,VALID,0.899671,
2000-04-24, 00:11:00,VALID,917.647,VALID,0,VALID,99.1635,VALID,-0.0169808,VALID,19.2748,VALID,189,VALID,0.905016,
2000-04-24, 00:12:00,VALID,917.633,VALID,0,VALID,99.1127,VALID,-0.0169808,VALID,19.2868,VALID,192,VALID,0.978299,
2000-04-24, 00:13:00,VALID,917.622,VALID,0,VALID,99.072,VALID,-0.0509425,VALID,19.3066,VALID,204,VALID,0.699535,
2000-04-24, 00:14:00,VALID,917.613,VALID,0,VALID,99.0389,VALID,-0.0679233,VALID,19.3131,VALID,211,VALID,0.842634,
2000-04-24, 00:15:00,VALID,917.604,VALID,0,VALID,99.0008,VALID,-0.0339617,VALID,19.3198,VALID,219,VALID,0.828536,
2000-04-24, 00:16:00,VALID,917.59,VALID,0,VALID,98.9601,VALID,-0.0339617,VALID,19.3103,VALID,212,VALID,0.845439,
2000-04-24, 00:17:00,VALID,917.584,VALID,0,VALID,98.9639,VALID,-0.0679233,VALID,19.2942,VALID,199,VALID,0.782278,
2000-04-24, 00:18:00,VALID,917.566,VALID,0,VALID,98.9893,VALID,-0.0509425,VALID,19.2808,VALID,194,VALID,0.966005,
2000-04-24, 00:19:00,VALID,917.558,VALID,0,VALID,98.9715,VALID,-0.0339617,VALID,19.2716,VALID,189,VALID,0.59707,
2000-04-24, 00:20:00,VALID,917.554,VALID,0,VALID,98.9766,VALID,-0.0509425,VALID,19.2517,VALID,196,VALID,0.74301,
2000-04-24, 00:21:00,VALID,917.541,VALID,0,VALID,98.9944,VALID,-0.0679233,VALID,19.2452,VALID,193,VALID,0.925998,
2000-04-24, 00:22:00,VALID,917.525,VALID,0,VALID,99.0122,VALID,-0.0679233,VALID,19.2616,VALID,190,VALID,0.816189,
2000-04-24, 00:23:00,VALID,917.505,VALID,0,VALID,99.0173,VALID,-0.0509425,VALID,19.2552,VALID,185,VALID,0.784539,
2000-04-24, 00:24:00,VALID,917.486,VALID,0,VALID,98.983,VALID,-0.0169808,VALID,19.2452,VALID,175,VALID,0.511161,
2000-04-24, 00:25:00,VALID,917.472,VALID,0,VALID,98.997,VALID,-0.0509425,VALID,19.2323,VALID,174,VALID,0.776563,
2000-04-24, 00:26:00,VALID,917.464,VALID,0,VALID,99.0478,VALID,-0.0679233,VALID,19.242,VALID,180,VALID,0.811699,
2000-04-24, 00:27:00,VALID,917.443,VALID,0,VALID,99.0542,VALID,-0.0679233,VALID,19.2482,VALID,186,VALID,0.97389,
2000-04-24, 00:28:00,VALID,917.434,VALID,0,VALID,98.9931,VALID,-0.0509425,VALID,19.2517,VALID,183,VALID,0.826029,
2000-04-24, 00:29:00,VALID,917.43,VALID,0,VALID,98.9741,VALID,-0.0169808,VALID,19.2517,VALID,187,VALID,0.910937,
2000-04-24, 00:30:00,VALID,917.41,VALID,0,VALID,98.9614,VALID,-0.0339617,VALID,19.2549,VALID,187,VALID,0.746711,
2000-04-24, 00:31:00,VALID,917.402,VALID,0,VALID,98.9486,VALID,-0.0679233,VALID,19.2817,VALID,194,VALID,1.03988,
2000-04-24, 00:32:00,VALID,917.397,VALID,0,VALID,98.9207,VALID,-0.0339617,VALID,19.2813,VALID,191,VALID,0.717061,
2000-04-24, 00:33:00,VALID,917.372,VALID,0,VALID,98.9079,VALID,-0.0849042,VALID,19.2748,VALID,182,VALID,0.582682,
2000-04-24, 00:34:00,VALID,917.355,VALID,0,VALID,98.8952,VALID,-0.0509425,VALID,19.2783,VALID,181,VALID,0.735937,
2000-04-24, 00:35:00,VALID,917.317,VALID,0,VALID,98.8634,VALID,-0.0509425,VALID,19.2713,VALID,167,VALID,0.654948,
2000-04-24, 00:36:00,VALID,917.313,VALID,0,VALID,98.8507,VALID,-0.0679233,VALID,19.2587,VALID,162,VALID,0.525549,
2000-04-24, 00:37:00,VALID,917.305,VALID,0,VALID,98.8634,VALID,0.0339617,VALID,19.2572,VALID,160,VALID,0.405617,
2000-04-24, 00:38:00,VALID,917.304,VALID,0,VALID,98.88,VALID,0.0509425,VALID,19.2473,VALID,153,VALID,0.50699,
2000-04-24, 00:39:00,VALID,917.3,VALID,0,VALID,98.894,VALID,0.0509425,VALID,19.2445,VALID,151,VALID,0.465511,
2000-04-24, 00:40:00,VALID,917.296,VALID,0,VALID,98.8927,VALID,0.0509425,VALID,19.2381,VALID,149,VALID,0.399671,
2000-04-24, 00:41:00,VALID,917.286,VALID,0.2,VALID,98.9029,VALID,0.0509425,VALID,19.2281,VALID,158,VALID,0.39597,
2000-04-24, 00:42:00,VALID,917.292,VALID,0,VALID,98.9003,VALID,0.0679233,VALID,19.1983,VALID,173,VALID,0.15191,
2000-04-24, 00:43:00,VALID,917.296,VALID,0,VALID,98.9194,VALID,0.0509425,VALID,19.1924,VALID,176,VALID,0,
2000-04-24, 00:44:00,VALID,917.304,VALID,0,VALID,98.9779,VALID,0.0339617,VALID,19.1991,VALID,192,VALID,0,
2000-04-24, 00:45:00,VALID,917.299,VALID,0,VALID,99.0198,VALID,0.0169808,VALID,19.209,VALID,190,VALID,0.303248,
2000-04-24, 00:46:00,VALID,917.293,VALID,0,VALID,99.0046,VALID,0.0339617,VALID,19.2055,VALID,189,VALID,0.246199,
2000-04-24, 00:47:00,VALID,917.295,VALID,0,VALID,99.0059,VALID,0,VALID,19.2088,VALID,212,VALID,0.515625,
2000-04-24, 00:48:00,VALID,917.279,VALID,0,VALID,99.0275,VALID,0.0849042,VALID,19.2117,VALID,206,VALID,0.514147,
2000-04-24, 00:49:00,VALID,917.282,VALID,0,VALID,99.0389,VALID,0.0679233,VALID,19.2083,VALID,213,VALID,0.505273,
2000-04-24, 00:50:00,VALID,917.264,VALID,0,VALID,99.0504,VALID,0.0849042,VALID,19.2058,VALID,212,VALID,0.590872,
2000-04-24, 00:51:00,VALID,917.267,VALID,0,VALID,99.044,VALID,0.0509425,VALID,19.2117,VALID,211,VALID,0.101128,
2000-04-24, 00:52:00,VALID,917.257,VALID,0,VALID,99.0694,VALID,0.0509425,VALID,19.1951,VALID,219,VALID,0,
2000-04-24, 00:53:00,VALID,917.254,VALID,0,VALID,99.0822,VALID,0.0169808,VALID,19.2053,VALID,216,VALID,0,
2000-04-24, 00:54:00,VALID,917.246,VALID,0,VALID,99.1038,VALID,0.0509425,VALID,19.1986,VALID,215,VALID,0,
2000-04-24, 00:55:00,VALID,917.237,VALID,0,VALID,99.1279,VALID,0.0509425,VALID,19.2085,VALID,235,VALID,0,
2000-04-24, 00:56:00,VALID,917.241,VALID,0,VALID,99.1356,VALID,0.0339617,VALID,19.202,VALID,223,VALID,0.496795,
2000-04-24, 00:57:00,VALID,917.237,VALID,0,VALID,99.1801,VALID,0.0509425,VALID,19.209,VALID,219,VALID,0.75514,
2000-04-24, 00:58:00,VALID,917.241,VALID,0,VALID,99.203,VALID,0.0169808,VALID,19.2184,VALID,217,VALID,0.358141,
2000-04-24, 00:59:00,VALID,917.24,VALID,0,VALID,99.1877,VALID,0.0169808,VALID,19.2088,VALID,209,VALID,0.649414,
2000-04-24, 01:00:00,VALID,917.238,VALID,0,VALID,99.189,VALID,0.0339617,VALID,19.1983,VALID,215,VALID,0.464021,
2000-04-24, 01:01:00,VALID,917.224,VALID,0,VALID,99.1941,VALID,0,VALID,19.2025,VALID,218,VALID,0.218133,
2000-04-24, 01:02:00,VALID,917.213,VALID,0,VALID,99.1928,VALID,0.0339617,VALID,19.1894,VALID,226,VALID,0.432432,
2000-04-24, 01:03:00,VALID,917.208,VALID,0,VALID,99.203,VALID,0.0339617,VALID,19.1924,VALID,229,VALID,0.37934,
2000-04-24, 01:04:00,VALID,917.187,VALID,0,VALID,99.2055,VALID,0.0679233,VALID,19.1891,VALID,230,VALID,0.52567,
2000-04-24, 01:05:00,VALID,917.203,VALID,0,VALID,99.2169,VALID,0.0169808,VALID,19.2058,VALID,227,VALID,0.610305,
2000-04-24, 01:06:00,VALID,917.197,VALID,0,VALID,99.2271,VALID,0,VALID,19.2088,VALID,226,VALID,0.365709,
2000-04-24, 01:07:00,VALID,917.204,VALID,0,VALID,99.2411,VALID,-0.0339617,VALID,19.2125,VALID,227,VALID,0.591216,
2000-04-24, 01:08:00,VALID,917.192,VALID,0,VALID,99.2144,VALID,-0.0679233,VALID,19.21,VALID,234,VALID,0.665913,
2000-04-24, 01:09:00,VALID,917.195,VALID,0,VALID,99.2017,VALID,-0.0509425,VALID,19.2107,VALID,229,VALID,0.678544,
2000-04-24, 01:10:00,VALID,917.174,VALID,0,VALID,99.1852,VALID,-0.0339617,VALID,19.1968,VALID,225,VALID,0.729235,
2000-04-24, 01:11:00,VALID,917.166,VALID,0,VALID,99.1559,VALID,-0.0679233,VALID,19.1742,VALID,220,VALID,0.690173,
2000-04-24, 01:12:00,VALID,917.153,VALID,0,VALID,99.1496,VALID,-0.101885,VALID,19.165,VALID,212,VALID,0.715495,
2000-04-24, 01:13:00,VALID,917.126,VALID,0,VALID,99.1445,VALID,-0.0849042,VALID,19.1548,VALID,193,VALID,0.720228,
2000-04-24, 01:14:00,VALID,917.107,VALID,0,VALID,99.1457,VALID,-0.0679233,VALID,19.161,VALID,185,VALID,0.591741,
2000-04-24, 01:15:00,VALID,917.085,VALID,0,VALID,99.1279,VALID,-0.0679233,VALID,19.158,VALID,207,VALID,0.692845,
2000-04-24, 01:16:00,VALID,917.083,VALID,0,VALID,99.1267,VALID,-0.0509425,VALID,19.1645,VALID,205,VALID,0.60473,
2000-04-24, 01:17:00,VALID,917.061,VALID,0,VALID,99.0847,VALID,-0.0679233,VALID,19.1739,VALID,201,VALID,0.653988,
2000-04-24, 01:18:00,VALID,917.046,VALID,0,VALID,99.0237,VALID,-0.0509425,VALID,19.1871,VALID,183,VALID,0.548986,
2000-04-24, 01:19:00,VALID,917.033,VALID,0,VALID,98.9474,VALID,-0.0679233,VALID,19.1973,VALID,173,VALID,0.626172,
2000-04-24, 01:20:00,VALID,917.014,VALID,0,VALID,98.9003,VALID,-0.0339617,VALID,19.1908,VALID,174,VALID,0.620683,
2000-04-24, 01:21:00,VALID,916.996,VALID,0,VALID,98.8584,VALID,-0.0339617,VALID,19.1943,VALID,178,VALID,0.731337,
2000-04-24, 01:22:00,VALID,916.972,VALID,0,VALID,98.8113,VALID,0,VALID,19.21,VALID,155,VALID,0.803602,
2000-04-24, 01:23:00,VALID,916.956,VALID,0,VALID,98.7859,VALID,0,VALID,19.2055,VALID,140,VALID,0.839227,
2000-04-24, 01:24:00,VALID,916.943,VALID,0,VALID,98.7795,VALID,0.0169808,VALID,19.2217,VALID,136,VALID,0.675223,
2000-04-24, 01:25:00,VALID,916.935,VALID,0,VALID,98.7515,VALID,0.0169808,VALID,19.2147,VALID,133,VALID,0.708789,
2000-04-24, 01:26:00,VALID,916.925,VALID,0,VALID,98.7185,VALID,0.0339617,VALID,19.2023,VALID,125,VALID,0.650441,
2000-04-24, 01:27:00,VALID,916.933,VALID,0,VALID,98.6892,VALID,0,VALID,19.1832,VALID,123,VALID,0.790296,
2000-04-24, 01:28:00,VALID,916.934,VALID,0,VALID,98.7312,VALID,0.0169808,VALID,19.1702,VALID,128,VALID,0.854441,
2000-04-24, 01:29:00,VALID,916.932,VALID,0,VALID,98.7554,VALID,0.0339617,VALID,19.1668,VALID,148,VALID,0.651172,
2000-04-24, 01:30:00,VALID,916.917,VALID,0,VALID,98.7388,VALID,0.0509425,VALID,19.1437,VALID,164,VALID,0.69634,
2000-04-24, 01:31:00,VALID,916.923,VALID,0,VALID,98.7528,VALID,0.0339617,VALID,19.1379,VALID,171,VALID,0.765831,
2000-04-24, 01:32:00,VALID,916.904,VALID,0,VALID,98.8024,VALID,0.0169808,VALID,19.1278,VALID,173,VALID,0.605152,
2000-04-24, 01:33:00,VALID,916.903,VALID,0,VALID,98.8037,VALID,0.0339617,VALID,19.1315,VALID,185,VALID,0.468316,
2000-04-24, 01:34:00,VALID,916.892,VALID,0,VALID,98.8151,VALID,0,VALID,19.1084,VALID,181,VALID,0.467857,
2000-04-24, 01:35:00,VALID,916.889,VALID,0,VALID,98.8406,VALID,0.0679233,VALID,19.0989,VALID,169,VALID,0.679688,
2000-04-24, 01:36:00,VALID,916.874,VALID,0,VALID,98.8723,VALID,0.0339617,VALID,19.089,VALID,164,VALID,0.65984,
2000-04-24, 01:37:00,VALID,916.866,VALID,0,VALID,98.9143,VALID,0.0169808,VALID,19.0957,VALID,157,VALID,0.856419,
2000-04-24, 01:38:00,VALID,916.843,VALID,0,VALID,98.9817,VALID,0.0169808,VALID,19.1024,VALID,152,VALID,0.870066,
2000-04-24, 01:39:00,VALID,916.839,VALID,0,VALID,98.983,VALID,0.0169808,VALID,19.0925,VALID,155,VALID,0.941883,
2000-04-24, 01:40:00,VALID,916.827,VALID,0,VALID,99.0109,VALID,0.0169808,VALID,19.0985,VALID,150,VALID,0.703536,
2000-04-24, 01:41:00,VALID,916.804,VALID,0,VALID,99.0084,VALID,0.0509425,VALID,19.1022,VALID,143,VALID,0.804482,
2000-04-24, 01:42:00,VALID,916.795,VALID,0,VALID,99.0198,VALID,0,VALID,19.1024,VALID,132,VALID,0.875,
2000-04-24, 01:43:00,VALID,916.783,VALID,0,VALID,99.0313,VALID,0.0169808,VALID,19.0992,VALID,151,VALID,0.868032,
2000-04-24, 01:44:00,VALID,916.783,VALID,0,VALID,99.058,VALID,0.0169808,VALID,19.1022,VALID,155,VALID,0.874777,
2000-04-24, 01:45:00,VALID,916.764,VALID,0,VALID,99.058,VALID,0.0169808,VALID,19.1186,VALID,142,VALID,0.505757,
2000-04-24, 01:46:00,VALID,916.762,VALID,0,VALID,99.0733,VALID,0.0169808,VALID,19.1183,VALID,117,VALID,0.458826,
2000-04-24, 01:47:00,VALID,916.761,VALID,0,VALID,99.0783,VALID,0.0339617,VALID,19.1312,VALID,120,VALID,0.506785,
2000-04-24, 01:48:00,VALID,916.753,VALID,0,VALID,99.072,VALID,0,VALID,19.1186,VALID,116,VALID,0.29962,
2000-04-24, 01:49:00,VALID,916.736,VALID,0,VALID,99.0707,VALID,0.0509425,VALID,19.132,VALID,118,VALID,0.555859,
2000-04-24, 01:50:00,VALID,916.733,VALID,0,VALID,99.0631,VALID,0.0339617,VALID,19.125,VALID,109,VALID,0.722039,
2000-04-24, 01:51:00,VALID,916.711,VALID,0,VALID,99.0351,VALID,0.0169808,VALID,19.1056,VALID,112,VALID,0.758898,
2000-04-24, 01:52:00,VALID,916.693,VALID,0,VALID,98.9982,VALID,0,VALID,19.0934,VALID,146,VALID,0.763238,
2000-04-24, 01:53:00,VALID,916.672,VALID,0,VALID,98.9906,VALID,-0.0169808,VALID,19.087,VALID,157,VALID,0.7794,
2000-04-24, 01:54:00,VALID,916.666,VALID,0,VALID,98.9664,VALID,-0.0169808,VALID,19.0708,VALID,169,VALID,0.752902,
2000-04-24, 01:55:00,VALID,916.656,VALID,0,VALID,98.9563,VALID,-0.0509425,VALID,19.0711,VALID,173,VALID,1.0752,
2000-04-24, 01:56:00,VALID,916.641,VALID,0,VALID,98.9359,VALID,-0.0169808,VALID,19.0842,VALID,176,VALID,0.899639,
2000-04-24, 01:57:00,VALID,916.621,VALID,0,VALID,98.927,VALID,-0.0509425,VALID,19.0842,VALID,184,VALID,0.75,
2000-04-24, 01:58:00,VALID,916.611,VALID,0,VALID,98.9067,VALID,-0.0339617,VALID,19.0847,VALID,187,VALID,0.703536,
2000-04-24, 01:59:00,VALID,916.599,VALID,0,VALID,98.9003,VALID,-0.0509425,VALID,19.0678,VALID,185,VALID,0.9,
2000-04-24, 02:00:00,VALID,916.575,VALID,0,VALID,98.8965,VALID,-0.0339617,VALID,19.0582,VALID,173,VALID,0.758635,
2000-04-24, 02:01:00,VALID,916.559,VALID,0,VALID,98.8889,VALID,-0.0169808,VALID,19.0683,VALID,172,VALID,0.71875,
2000-04-24, 02:02:00,VALID,916.543,VALID,0,VALID,98.9181,VALID,-0.0169808,VALID,19.0489,VALID,171,VALID,0.826858,
2000-04-24, 02:03:00,VALID,916.54,VALID,0,VALID,98.9334,VALID,-0.0509425,VALID,19.0485,VALID,165,VALID,0.896484,
2000-04-24, 02:04:00,VALID,916.527,VALID,0,VALID,98.9219,VALID,-0.0169808,VALID,19.0388,VALID,167,VALID,1.00759,
2000-04-24, 02:05:00,VALID,916.507,VALID,0,VALID,98.9067,VALID,-0.0169808,VALID,19.0455,VALID,176,VALID,0.877976,
2000-04-24, 02:06:00,VALID,916.484,VALID,0,VALID,98.9003,VALID,-0.0509425,VALID,19.0254,VALID,187,VALID,0.834037,
2000-04-24, 02:07:00,VALID,916.484,VALID,0,VALID,98.9168,VALID,-0.0169808,VALID,19.0388,VALID,189,VALID,0.9394,
2000-04-24, 02:08:00,VALID,916.463,VALID,0,VALID,98.9334,VALID,-0.0339617,VALID,19.0459,VALID,177,VALID,0.905428,
2000-04-24, 02:09:00,VALID,916.451,VALID,0,VALID,98.9703,VALID,-0.0339617,VALID,19.0492,VALID,191,VALID,0.97561,
2000-04-24, 02:10:00,VALID,916.437,VALID,0,VALID,98.9588,VALID,-0.0339617,VALID,19.0489,VALID,184,VALID,0.966283,
2000-04-24, 02:11:00,VALID,916.438,VALID,0,VALID,98.9448,VALID,-0.0679233,VALID,19.0427,VALID,189,VALID,0.773026,
2000-04-24, 02:12:00,VALID,916.421,VALID,0,VALID,98.9614,VALID,-0.0509425,VALID,19.0554,VALID,193,VALID,1.00109,
2000-04-24, 02:13:00,VALID,916.414,VALID,0,VALID,98.9639,VALID,-0.0339617,VALID,19.0383,VALID,194,VALID,1.00443,
2000-04-24, 02:14:00,VALID,916.407,VALID,0,VALID,98.9804,VALID,-0.0509425,VALID,19.0745,VALID,194,VALID,0.729688,
2000-04-24, 02:15:00,VALID,916.407,VALID,0,VALID,99.0084,VALID,-0.0339617,VALID,19.0745,VALID,189,VALID,1.01994,
2000-04-24, 02:16:00,VALID,916.393,VALID,0,VALID,99.0249,VALID,-0.0679233,VALID,19.0912,VALID,172,VALID,0.784206,
2000-04-24, 02:17:00,VALID,916.391,VALID,0,VALID,99.0148,VALID,-0.0509425,VALID,19.0845,VALID,170,VALID,0.499383,
2000-04-24, 02:18:00,VALID,916.384,VALID,0,VALID,99.0313,VALID,-0.0339617,VALID,19.0738,VALID,165,VALID,0.451647,
2000-04-24, 02:19:00,VALID,916.373,VALID,0,VALID,99.0351,VALID,-0.0169808,VALID,19.0842,VALID,166,VALID,0.19043,
2000-04-24, 02:20:00,VALID,916.358,VALID,0,VALID,99.0287,VALID,0,VALID,19.0815,VALID,189,VALID,0.412212,
2000-04-24, 02:21:00,VALID,916.348,VALID,0,VALID,99.0338,VALID,-0.0509425,VALID,19.0616,VALID,171,VALID,0.388889,
2000-04-24, 02:22:00,VALID,916.336,VALID,0,VALID,99.0466,VALID,-0.0339617,VALID,19.0621,VALID,180,VALID,0.500651,
2000-04-24, 02:23:00,VALID,916.328,VALID,0,VALID,99.0516,VALID,-0.0339617,VALID,19.0489,VALID,183,VALID,0.800576,
2000-04-24, 02:24:00,VALID,916.319,VALID,0,VALID,99.0542,VALID,-0.0509425,VALID,19.0358,VALID,173,VALID,0.807366,
2000-04-24, 02:25:00,VALID,916.317,VALID,0,VALID,99.0656,VALID,-0.0509425,VALID,19.0393,VALID,165,VALID,0.601563,
2000-04-24, 02:26:00,VALID,916.297,VALID,0,VALID,99.0733,VALID,-0.0169808,VALID,19.0263,VALID,162,VALID,0.742588,
2000-04-24, 02:27:00,VALID,916.291,VALID,0,VALID,99.0605,VALID,-0.0509425,VALID,19.0132,VALID,162,VALID,0.588199,
2000-04-24, 02:28:00,VALID,916.266,VALID,0,VALID,99.0758,VALID,-0.0339617,VALID,19.0035,VALID,162,VALID,0.753084,
2000-04-24, 02:29:00,VALID,916.237,VALID,0,VALID,99.1,VALID,-0.0169808,VALID,19.0003,VALID,159,VALID,0.821875,
2000-04-24, 02:30:00,VALID,916.214,VALID,0,VALID,99.1025,VALID,0,VALID,19.0003,VALID,169,VALID,0.695929,
2000-04-24, 02:31:00,VALID,916.186,VALID,0,VALID,99.1101,VALID,-0.0169808,VALID,18.9908,VALID,172,VALID,0.643914,
2000-04-24, 02:32:00,VALID,916.17,VALID,0,VALID,99.1089,VALID,-0.0169808,VALID,18.9779,VALID,174,VALID,0.623733,
2000-04-24, 02:33:00,VALID,916.14,VALID,0,VALID,99.133,VALID,0,VALID,18.9714,VALID,174,VALID,0.73546,
2000-04-24, 02:34:00,VALID,916.115,VALID,0,VALID,99.1406,VALID,-0.0339617,VALID,18.9479,VALID,177,VALID,0.618973,
2000-04-24, 02:35:00,VALID,916.104,VALID,0,VALID,99.1699,VALID,0,VALID,18.9516,VALID,181,VALID,0.624628,
2000-04-24, 02:36:00,VALID,916.093,VALID,0,VALID,99.1928,VALID,-0.0679233,VALID,18.9486,VALID,184,VALID,0.780194,
2000-04-24, 02:37:00,VALID,916.075,VALID,0,VALID,99.2157,VALID,-0.0509425,VALID,18.955,VALID,194,VALID,0.693412,
2000-04-24, 02:38:00,VALID,916.07,VALID,0,VALID,99.2004,VALID,-0.0679233,VALID,18.9754,VALID,186,VALID,0.70148,
2000-04-24, 02:39:00,VALID,916.06,VALID,0,VALID,99.1635,VALID,-0.0339617,VALID,18.9553,VALID,173,VALID,0.989139,
2000-04-24, 02:40:00,VALID,916.054,VALID,0,VALID,99.1508,VALID,-0.0339617,VALID,18.952,VALID,168,VALID,0.92537,
2000-04-24, 02:41:00,VALID,916.046,VALID,0,VALID,99.1305,VALID,-0.0339617,VALID,18.9714,VALID,163,VALID,0.984581,
2000-04-24, 02:42:00,VALID,916.024,VALID,0,VALID,99.0872,VALID,-0.0339617,VALID,18.9873,VALID,159,VALID,0.813585,
2000-04-24, 02:43:00,VALID,916.014,VALID,0,VALID,99.0224,VALID,-0.0509425,VALID,19.0003,VALID,152,VALID,0.765203,
2000-04-24, 02:44:00,VALID,916.002,VALID,0,VALID,98.9512,VALID,-0.0339617,VALID,19.0137,VALID,171,VALID,0.880357,
2000-04-24, 02:45:00,VALID,915.993,VALID,0,VALID,98.8825,VALID,0,VALID,19.0102,VALID,181,VALID,0.700041,
2000-04-24, 02:46:00,VALID,915.982,VALID,0,VALID,98.8444,VALID,-0.0169808,VALID,19.0102,VALID,201,VALID,0.603463,
2000-04-24, 02:47:00,VALID,915.968,VALID,0,VALID,98.8202,VALID,0,VALID,19.0032,VALID,208,VALID,0.611842,
2000-04-24, 02:48:00,VALID,915.969,VALID,0,VALID,98.7999,VALID,-0.0169808,VALID,18.9973,VALID,203,VALID,0.659206,
2000-04-24, 02:49:00,VALID,915.959,VALID,0,VALID,98.7719,VALID,-0.0169808,VALID,18.9839,VALID,189,VALID,0.469336,
2000-04-24, 02:50:00,VALID,915.957,VALID,0,VALID,98.7821,VALID,-0.0169808,VALID,18.9843,VALID,192,VALID,0.307771,
2000-04-24, 02:51:00,VALID,915.944,VALID,0,VALID,98.7833,VALID,-0.0339617,VALID,18.9647,VALID,191,VALID,0.488281,
2000-04-24, 02:52:00,VALID,915.942,VALID,0,VALID,98.7986,VALID,-0.0339617,VALID,18.9523,VALID,191,VALID,0.482205,
2000-04-24, 02:53:00,VALID,915.922,VALID,0,VALID,98.8049,VALID,-0.0169808,VALID,18.9491,VALID,190,VALID,0.251234,
2000-04-24, 02:54:00,VALID,915.916,VALID,0,VALID,98.8482,VALID,0,VALID,18.9424,VALID,186,VALID,0.16808,
2000-04-24, 02:55:00,VALID,915.911,VALID,0,VALID,98.8736,VALID,-0.0169808,VALID,18.9324,VALID,188,VALID,0,
2000-04-24, 02:56:00,VALID,915.896,VALID,0,VALID,98.8876,VALID,-0.0679233,VALID,18.9424,VALID,189,VALID,0,
2000-04-24, 02:57:00,VALID,915.896,VALID,0,VALID,98.8952,VALID,-0.0849042,VALID,18.9324,VALID,189,VALID,0,
2000-04-24, 02:58:00,VALID,915.888,VALID,0,VALID,98.8978,VALID,-0.0339617,VALID,18.9158,VALID,185,VALID,0,
2000-04-24, 02:59:00,VALID,915.881,VALID,0,VALID,98.9194,VALID,-0.0169808,VALID,18.9262,VALID,196,VALID,0,
2000-04-24, 03:00:00,VALID,915.892,VALID,0,VALID,98.9232,VALID,0,VALID,18.8967,VALID,195,VALID,0,
2000-04-24, 03:01:00,VALID,915.892,VALID,0,VALID,98.9436,VALID,-0.0339617,VALID,18.9004,VALID,195,VALID,0,
2000-04-24, 03:02:00,VALID,915.89,VALID,0,VALID,98.9703,VALID,-0.0169808,VALID,18.8967,VALID,193,VALID,0,
2000-04-24, 03:03:00,VALID,915.881,VALID,0,VALID,98.997,VALID,-0.0339617,VALID,18.9006,VALID,193,VALID,0,
2000-04-24, 03:04:00,VALID,915.879,VALID,0,VALID,98.9677,VALID,-0.0339617,VALID,18.8907,VALID,193,VALID,0,
2000-04-24, 03:05:00,VALID,915.877,VALID,0,VALID,98.9868,VALID,-0.0169808,VALID,18.878,VALID,193,VALID,0,
2000-04-24, 03:06:00,VALID,915.867,VALID,0,VALID,99.0148,VALID,-0.101885,VALID,18.8681,VALID,193,VALID,0,
2000-04-24, 03:07:00,VALID,915.853,VALID,0,VALID,99.044,VALID,0.0679233,VALID,18.8701,VALID,191,VALID,0,
2000-04-24, 03:08:00,VALID,915.847,VALID,0,VALID,99.058,VALID,0.0339617,VALID,18.8696,VALID,183,VALID,0,
2000-04-24, 03:09:00,VALID,915.845,VALID,0,VALID,99.0733,VALID,0.0679233,VALID,18.8671,VALID,183,VALID,0,
2000-04-24, 03:10:00,VALID,915.853,VALID,0,VALID,99.1127,VALID,0.0849042,VALID,18.8565,VALID,181,VALID,0,
2000-04-24, 03:11:00,VALID,915.853,VALID,0,VALID,99.1089,VALID,0.0679233,VALID,18.8565,VALID,175,VALID,0,
2000-04-24, 03:12:00,VALID,915.853,VALID,0,VALID,99.119,VALID,0.0679233,VALID,18.8537,VALID,174,VALID,0,
2000-04-24, 03:13:00,VALID,915.83,VALID,0,VALID,99.1228,VALID,0.0679233,VALID,18.841,VALID,174,VALID,0,
2000-04-24, 03:14:00,VALID,915.828,VALID,0,VALID,99.1483,VALID,0.0849042,VALID,18.8507,VALID,174,VALID,0,
2000-04-24, 03:15:00,VALID,915.83,VALID,0,VALID,99.1597,VALID,0.0679233,VALID,18.8473,VALID,173,VALID,0,
2000-04-24, 03:16:00,VALID,915.844,VALID,0,VALID,99.1623,VALID,0.0849042,VALID,18.8378,VALID,168,VALID,0,
2000-04-24, 03:17:00,VALID,915.852,VALID,0,VALID,99.1724,VALID,0.0849042,VALID,18.8207,VALID,168,VALID,0,
2000-04-24, 03:18:00,VALID,915.844,VALID,0,VALID,99.175,VALID,0.0339617,VALID,18.8311,VALID,174,VALID,0,
2000-04-24, 03:19:00,VALID,915.841,VALID,0,VALID,99.1712,VALID,0.101885,VALID,18.8311,VALID,187,VALID,0,
2000-04-24, 03:20:00,VALID,915.843,VALID,0,VALID,99.1686,VALID,0.0169808,VALID,18.8083,VALID,175,VALID,0,
2000-04-24, 03:21:00,VALID,915.846,VALID,0,VALID,99.1534,VALID,0.0679233,VALID,18.8087,VALID,161,VALID,0,
2000-04-24, 03:22:00,VALID,915.828,VALID,0,VALID,99.1724,VALID,-0.0849042,VALID,18.8002,VALID,152,VALID,0,
2000-04-24, 03:23:00,VALID,915.834,VALID,0,VALID,99.1788,VALID,-0.0679233,VALID,18.797,VALID,163,VALID,0.315789,
2000-04-24, 03:24:00,VALID,915.844,VALID,0,VALID,99.1966,VALID,-0.0679233,VALID,18.797,VALID,191,VALID,0.39442,
2000-04-24, 03:25:00,VALID,915.848,VALID,0,VALID,99.2182,VALID,-0.0509425,VALID,18.8069,VALID,209,VALID,0.325391,
2000-04-24, 03:26:00,VALID,915.838,VALID,0,VALID,99.2386,VALID,0,VALID,18.8164,VALID,211,VALID,0.557893,
2000-04-24, 03:27:00,VALID,915.851,VALID,0,VALID,99.2411,VALID,-0.0679233,VALID,18.8263,VALID,203,VALID,0.845189,
2000-04-24, 03:28:00,VALID,915.834,VALID,0,VALID,99.2398,VALID,-0.0509425,VALID,18.8166,VALID,194,VALID,0.886308,
2000-04-24, 03:29:00,VALID,915.834,VALID,0,VALID,99.2449,VALID,-0.0169808,VALID,18.8231,VALID,185,VALID,1.46699,
2000-04-24, 03:30:00,VALID,915.818,VALID,0,VALID,99.2195,VALID,-0.0169808,VALID,18.8164,VALID,178,VALID,0.951069,
2000-04-24, 03:31:00,VALID,915.819,VALID,0,VALID,99.2068,VALID,-0.0169808,VALID,18.8002,VALID,174,VALID,0.580181,